Location: *
(55.5817°S, 142.4781°W)
Time: 07:43:36
(UTC+00:00)

Cosmos 1802 Rocket - Pass Details

Date: 29 April 2025
Orbit: 953 x 1011 km, 82.9° (Epoch: 18 May)

Event Time Altitude Azimuth Distance (km) Brightness Sun altitude
Exits shadow 14:24:48 22° 322° (NW) 2,057 5.3 -20.9°
Maximum altitude 14:28:58 56° 252° (WSW) 1,212 4.1 -20.3°
Drops below altitude 10° 14:35:23 10° 173° (S) 2,831 6.5 -19.4°
Sets 14:38:01 0° 168° (SSE) 3,784 7.3 -19.0°
